Location: Boiro
(42.6475°N, 8.8834°W)
Time: 19:13:41
(UTC+01:00)

Tiros 1 despin weight - Pass Details

Date: 05 December 2021
Orbit: 592 x 641 km, 48.2° (Epoch: 27 January)

Event Time Altitude Azimuth Distance (km) Brightness Sun altitude
Rises 18:18:08 0° 293° (WNW) 2,826 ? -3.4°
Reaches altitude 10° 18:20:28 10° 298° (WNW) 1,923 ? -3.8°
Maximum altitude 18:24:47 55° 17° (NNE) 715 ? -4.5°
Drops below altitude 10° 18:29:07 10° 96° (E) 1,926 ? -5.2°
Enters shadow 18:31:11 - 100° (E) 2,726 ? -5.6°
Sets 18:31:27 0° 101° (E) 2,831 - -5.6°
